Richlands, VA

10:23 PM EDT on June 27, 2017 (GMT -0400)
Tazewell County

Weather History for KJFZ - October, 2012

Change the Weather History Date:

Wednesday, October 31, 2012

  Actual Average (KBLF) Record (KBLF)
Temperature  
Mean Temperature 32 °F -  
Max Temperature 35 °F 60 °F 75 °F (1982)
Min Temperature 30 °F 44 °F 28 °F (1993)
Degree Days  
Heating Degree Days 32    
Moisture  
Dew Point 33 °F    
Average Humidity 99    
Maximum Humidity 100    
Minimum Humidity 93    
Precipitation  
Precipitation 0.00 in - - ()
Sea Level Pressure  
Sea Level Pressure 29.70 in    
Wind  
Wind Speed 8 mph (West)    
Max Wind Speed 12 mph    
Max Gust Speed 22 mph    
Visibility 6 miles    
Events      
Averages and records for this station are not official NWS values.
T = Trace of Precipitation, MM = Missing Value Source: NWS Daily Summary

Daily Weather History Graph

Daily Weather History Graph

Search for Another Location

Airport or City:

Trip Planner

Search our weather history database for the weather conditions in past years. The results will help you decide how hot, cold, wet, or windy it might be!

Date:

Astronomy

Oct. 31, 2012 Rise Set
Actual Time 7:50 AM EDT 6:30 PM EDT
Civil Twilight 7:23 AM EDT 6:57 PM EDT
Nautical Twilight 6:53 AM EDT 7:27 PM EDT
Astronomical Twilight 6:22 AM EDT 7:58 PM EDT
Moon 7:43 PM EDT (10/31) 9:28 AM EDT (10/31)
Length of Visible Light 11h 33m
Length of Day
10h 39m
Full, 97% of the Moon is Illuminated
Oct 31
Full
Nov 6
Last Quarter
Nov 13
New
Nov 20
First Quarter
Nov 28
Full

Hourly Weather History & Observations

Time (EDT) Temp. Windchill Dew Point Humidity Pressure Visibility Wind Dir Wind Speed Gust Speed Precip Events Conditions
12:55 AM 30.2 °F 21.9 °F 30.2 °F 100% 29.61 in 3.0 mi West 9.2 mph - N/A   Clear
1:55 AM 30.2 °F 21.3 °F 30.2 °F 100% 29.62 in 3.0 mi WSW 10.4 mph - N/A   Clear
2:15 AM 30.2 °F 21.3 °F 30.2 °F 100% 29.62 in 3.0 mi WSW 10.4 mph - N/A   Clear
2:35 AM 30.2 °F 25.4 °F 30.2 °F 100% 29.62 in 2.5 mi Variable 4.6 mph - N/A   Unknown
2:55 AM 30.2 °F 21.9 °F 30.2 °F 100% 29.62 in 2.0 mi West 9.2 mph - N/A   Unknown
3:15 AM 30.2 °F 22.6 °F 30.2 °F 100% 29.63 in 1.8 mi West 8.1 mph - N/A   Unknown
3:35 AM 30.2 °F 21.3 °F 30.2 °F 100% 29.63 in 2.5 mi West 10.4 mph - N/A   Clear
3:55 AM 30.2 °F 20.8 °F 30.2 °F 100% 29.62 in 3.0 mi WSW 11.5 mph - N/A   Clear
4:15 AM 30.2 °F 21.9 °F 30.2 °F 100% 29.62 in 2.0 mi WSW 9.2 mph - N/A   Unknown
4:35 AM 30.2 °F 22.6 °F 30.2 °F 100% 29.63 in 4.0 mi West 8.1 mph - N/A   Unknown
4:55 AM 32.0 °F 24.8 °F 30.2 °F 93% 29.63 in 4.0 mi West 8.1 mph - N/A   Unknown
5:15 AM 32.0 °F 24.8 °F 30.2 °F 93% 29.63 in 6.0 mi West 8.1 mph - N/A   Unknown
5:35 AM 32.0 °F 26.4 °F 32.0 °F 100% 29.64 in 5.0 mi West 5.8 mph - N/A   Clear
5:55 AM 32.0 °F 26.4 °F 32.0 °F 100% 29.64 in 7.0 mi Variable 5.8 mph - N/A   Clear
6:15 AM 32.0 °F 23.0 °F 32.0 °F 100% 29.64 in 7.0 mi West 11.5 mph 21.9 mph N/A   Clear
6:35 AM 32.0 °F 24.8 °F 32.0 °F 100% 29.65 in 5.0 mi WSW 8.1 mph - N/A   Clear
6:55 AM 32.0 °F 24.8 °F 32.0 °F 100% 29.65 in 7.0 mi WSW 8.1 mph - N/A   Clear
7:15 AM 32.0 °F 23.6 °F 32.0 °F 100% 29.65 in 6.0 mi WSW 10.4 mph - N/A   Clear
7:35 AM 32.0 °F 23.6 °F 32.0 °F 100% 29.66 in 3.0 mi West 10.4 mph - N/A   Clear
7:55 AM 32.0 °F 23.6 °F 32.0 °F 100% 29.66 in 2.5 mi WSW 10.4 mph - N/A   Clear
8:15 AM 32.0 °F 23.6 °F 32.0 °F 100% 29.67 in 2.5 mi WSW 10.4 mph - N/A   Clear
8:35 AM 32.0 °F 24.8 °F 32.0 °F 100% 29.67 in 1.8 mi West 8.1 mph - N/A   Clear
8:55 AM 32.0 °F 25.6 °F 32.0 °F 100% 29.67 in 1.2 mi Variable 6.9 mph - N/A   Clear
9:15 AM 32.0 °F 23.6 °F 32.0 °F 100% 29.67 in 2.0 mi WSW 10.4 mph - N/A   Clear
9:55 AM 32.0 °F 24.2 °F 32.0 °F 100% 29.68 in 5.0 mi West 9.2 mph - N/A   Clear
10:15 AM 32.0 °F 24.2 °F 32.0 °F 100% 29.68 in 8.0 mi WSW 9.2 mph - N/A   Clear
10:35 AM 33.8 °F 27.7 °F 32.0 °F 93% 29.68 in 5.0 mi West 6.9 mph - N/A   Clear
10:55 AM 33.8 °F 28.6 °F 32.0 °F 93% 29.68 in 3.0 mi WSW 5.8 mph - N/A   Clear
11:15 AM 32.0 °F 24.8 °F 32.0 °F 100% 29.69 in 1.8 mi West 8.1 mph - N/A   Unknown
11:35 AM 33.8 °F 27.7 °F 32.0 °F 93% 29.69 in 2.5 mi West 6.9 mph - N/A   Unknown
11:55 AM 33.8 °F 27.7 °F 33.8 °F 100% 29.70 in 5.0 mi West 6.9 mph - N/A   Unknown
12:15 PM 33.8 °F 27.7 °F 33.8 °F 100% 29.70 in 10.0 mi West 6.9 mph - N/A   Clear
12:35 PM 33.8 °F 26.4 °F 33.8 °F 100% 29.70 in 7.0 mi WSW 9.2 mph - N/A   Clear
12:55 PM 33.8 °F 27.7 °F 33.8 °F 100% 29.70 in 10.0 mi Variable 6.9 mph - N/A   Clear
1:15 PM 33.8 °F 26.4 °F 33.8 °F 100% 29.69 in 9.0 mi WSW 9.2 mph - N/A   Clear
1:35 PM 35.6 °F 30.7 °F 35.6 °F 100% 29.69 in 10.0 mi Variable 5.8 mph - N/A   Clear
1:55 PM 35.6 °F 29.9 °F 35.6 °F 100% 29.69 in 10.0 mi West 6.9 mph - N/A   Unknown
2:15 PM 35.6 °F 29.9 °F 35.6 °F 100% 29.69 in 10.0 mi West 6.9 mph - N/A   Unknown
2:35 PM 35.6 °F 27.5 °F 35.6 °F 100% 29.69 in 10.0 mi West 11.5 mph - N/A   Unknown
2:55 PM 35.6 °F 28.0 °F 35.6 °F 100% 29.69 in 10.0 mi West 10.4 mph - N/A   Unknown
3:15 PM 35.6 °F 27.5 °F 35.6 °F 100% 29.69 in 10.0 mi West 11.5 mph 20.7 mph N/A   Unknown
3:55 PM 35.6 °F 29.9 °F 33.8 °F 93% 29.70 in 8.0 mi Variable 6.9 mph - N/A   Unknown
4:15 PM 35.6 °F 27.5 °F 35.6 °F 100% 29.71 in 10.0 mi West 11.5 mph - N/A   Clear
4:35 PM 35.6 °F 30.7 °F 35.6 °F 100% 29.72 in 9.0 mi West 5.8 mph - N/A   Clear
4:55 PM 35.6 °F 31.7 °F 35.6 °F 100% 29.72 in 9.0 mi West 4.6 mph - N/A   Clear
5:15 PM 35.6 °F 31.7 °F 35.6 °F 100% 29.72 in 9.0 mi West 4.6 mph - N/A   Clear
5:35 PM 33.8 °F 29.6 °F 33.8 °F 100% 29.73 in 6.0 mi West 4.6 mph - N/A   Clear
5:55 PM 33.8 °F - 33.8 °F 100% 29.73 in 6.0 mi Calm Calm - N/A   Clear
6:35 PM 33.8 °F 30.8 °F 33.8 °F 100% 29.75 in 10.0 mi West 3.5 mph - N/A   Unknown
6:55 PM 33.8 °F 30.8 °F 33.8 °F 100% 29.75 in 10.0 mi SW 3.5 mph - N/A   Unknown
7:15 PM 33.8 °F 30.8 °F 33.8 °F 100% 29.75 in 10.0 mi SW 3.5 mph - N/A   Unknown
7:35 PM 33.8 °F 29.6 °F 33.8 °F 100% 29.76 in 10.0 mi Variable 4.6 mph - N/A   Unknown
7:55 PM 35.6 °F 30.7 °F 33.8 °F 93% 29.76 in 10.0 mi West 5.8 mph - N/A   Unknown
8:35 PM 33.8 °F 30.8 °F 33.8 °F 100% 29.77 in 10.0 mi West 3.5 mph - N/A   Clear
8:55 PM 33.8 °F 29.6 °F 33.8 °F 100% 29.77 in 10.0 mi West 4.6 mph - N/A   Unknown
9:15 PM 33.8 °F 29.6 °F 33.8 °F 100% 29.78 in 10.0 mi West 4.6 mph - N/A   Unknown
9:35 PM 33.8 °F 29.6 °F 33.8 °F 100% 29.78 in 10.0 mi West 4.6 mph - N/A   Unknown
9:55 PM 33.8 °F 28.6 °F 33.8 °F 100% 29.78 in 10.0 mi West 5.8 mph - N/A   Unknown
10:15 PM 33.8 °F 28.6 °F 33.8 °F 100% 29.78 in 10.0 mi Variable 5.8 mph - N/A   Unknown
10:35 PM 33.8 °F 30.8 °F 33.8 °F 100% 29.79 in 6.0 mi Variable 3.5 mph - N/A   Unknown
10:55 PM 33.8 °F 29.6 °F 33.8 °F 100% 29.79 in 6.0 mi West 4.6 mph - N/A   Unknown
11:15 PM 33.8 °F 28.6 °F 33.8 °F 100% 29.79 in 5.0 mi Variable 5.8 mph - N/A   Partly Cloudy
11:35 PM 33.8 °F 27.7 °F 33.8 °F 100% 29.79 in 6.0 mi West 6.9 mph - N/A   Unknown
11:55 PM 33.8 °F 28.6 °F 33.8 °F 100% 29.79 in 5.0 mi Variable 5.8 mph - N/A   Unknown